Flag for Canada Weather past 2 weeks in North Bay, Ontario, Canada

Now
63 °F

Passing clouds.


Feels Like: 63 °F
Forecast: 56 / 74 °F
Wind: 8 mph from West

Location: North Bay

Current Time: Jul 25, 2014 at 10:28:19 AM

Latest Report: Jul 25, 2014 at 9:00 AM


Visibility: 15 mi

Pressure: 29.98 "Hg

Humidity: 73%

Dew point: 54 °F

Location of North BayLocation

Historic Weather in North Bay — Graph

°F

North Bay temperature yesterday

Maximum temperature yesterday: 72 °F (at 4:00 PM)
Minimum temperature yesterday: 48 °F (at 12:00 AM)
Average temperature yesterday: 60 °F

Past Weeks' High & Low Weather Summary

 TemperatureHumidityPressure
High79 °F (Jul 22, 12:00 PM)100% (Jul 13, 1:57 AM)30.26 "Hg (Jul 13, 1:57 AM)
Low48 °F (Jul 17, 5:00 AM)33% (Jul 10, 5:00 PM)29.64 "Hg (Jul 15, 6:00 PM)
Average63 °F76%29.99 "Hg
* Reported Jul 10 9:00 AM — Jul 25 9:00 AM, North Bay, Weather by CustomWeather, © 2014

Note: Actual official high and low records may vary slightly from our data, if they occured in-between our weather recording intervals... More about our weather records

Advertising

North Bay weather history for previous 24 hours

 ConditionsComfort  
Time TempWeatherWind HumidityBarometerVisibility
9:00 AM
Jul 25
63 °FPassing clouds.8 mph73%29.98 "Hg15 mi
8:00 AM57 °FScattered clouds.7 mph82%29.99 "Hg15 mi
7:00 AM55 °FPassing clouds.8 mph88%29.98 "Hg15 mi
6:00 AM55 °FClear.7 mph88%29.97 "Hg9 mi
5:00 AM57 °FClear.6 mph94%29.96 "Hg9 mi
4:00 AM57 °FClear.7 mph94%29.95 "Hg9 mi
3:00 AM59 °FClear.6 mph82%29.95 "Hg9 mi
2:00 AM59 °FClear.8 mph88%29.96 "Hg9 mi
1:00 AM57 °FClear.8 mph94%29.97 "Hg9 mi
12:00 AM59 °FClear.6 mph88%29.98 "Hg9 mi
11:00 PM
Jul 24
61 °FClear.9 mph77%29.98 "Hg9 mi
10:00 PM63 °FPassing clouds.9 mph73%29.98 "Hg20 mi
9:00 PM64 °FPartly sunny.5 mph68%29.98 "Hg20 mi
8:00 PM66 °FScattered clouds.12 mph64%29.96 "Hg20 mi
7:00 PM68 °FScattered clouds.12 mph60%29.95 "Hg20 mi
6:00 PM72 °FPassing clouds.10 mph53%29.96 "Hg20 mi
5:00 PM72 °FScattered clouds.14 mph50%29.98 "Hg20 mi
4:00 PM72 °FPartly sunny.12 mph50%29.99 "Hg15 mi
3:00 PM70 °FCloudy.15 mph50%30.01 "Hg15 mi
2:00 PM70 °FMostly cloudy.17 mph53%30.01 "Hg30 mi
1:00 PM70 °FMore clouds than sun.14 mph57%30.03 "Hg15 mi
12:00 PM68 °FPartly sunny.12 mph49%30.05 "Hg15 mi
11:00 AM68 °FPartly sunny.14 mph49%30.05 "Hg15 mi
10:00 AM64 °FScattered clouds.12 mph56%30.05 "Hg15 mi
Weather by CustomWeather, © 2014

See weather overviewHow to use our weather pages